Location: Conestogo Lake
(43.6739°N, 80.7211°W)
Time: 16:29:12
(UTC-03:00)

ISS - Visible Passes

Search period start: 20 May 2018 00:00
Search period end: 30 May 2018 00:00
Orbit: 402 x 407 km, 51.6° (Epoch: 21 May)

Date Brightness Start Highest point End Pass type
(mag) Time Alt. Az. Time Alt. Az. Time Alt. Az.
20 May -1.4 01:16:30 18° NE 01:16:30 18° NE 01:17:36 10° NE visible
20 May -1.1 02:49:09 10° NW 02:51:39 20° N 02:54:08 10° NE visible
20 May -1.7 04:25:56 10° NW 04:28:51 29° NNE 04:31:45 10° E visible
20 May -3.8 06:02:17 10° WNW 06:05:31 60° SW 06:08:43 10° SE visible
20 May -2.5 22:43:34 10° S 22:46:02 20° SE 22:48:31 10° E visible
21 May -3.2 00:19:03 10° WSW 00:22:17 57° NNW 00:25:30 10° NE visible
21 May -1.2 01:56:38 10° WNW 01:59:14 21° N 02:01:51 10° NE visible
21 May -1.3 03:33:48 10° NW 03:36:29 23° NNE 03:39:11 10° ENE visible
21 May -3.7 05:10:06 10° NW 05:13:22 76° NNE 05:16:38 10° ESE visible
21 May -4.0 23:26:49 10° SW 23:30:05 84° SE 23:33:21 10° ENE visible
22 May -1.5 01:04:04 10° WNW 01:06:51 25° NNW 01:09:39 10° NE visible
22 May -1.1 02:41:33 10° NW 02:44:06 20° N 02:46:38 10° ENE visible
22 May -2.8 04:17:58 10° NW 04:21:08 46° NNE 04:24:18 10° E visible
22 May -2.8 05:54:42 10° WNW 05:57:29 26° SW 06:00:15 10° SSE visible
22 May -3.6 22:34:48 10° SW 22:37:56 45° SE 22:41:05 10° ENE visible
23 May -2.0 00:11:30 10° W 00:14:30 33° NNW 00:17:31 10° NE visible
23 May -1.0 01:49:10 10° NW 01:51:40 20° N 01:54:09 10° NE visible
23 May -2.0 03:25:50 10° NW 03:28:50 32° NNE 03:31:48 10° E visible
23 May -3.7 05:02:15 10° WNW 05:05:24 47° SW 05:08:33 10° SE visible
23 May -2.8 23:19:01 10° WSW 23:22:11 48° NNW 23:25:23 10° NE visible
24 May -1.1 00:56:40 10° WNW 00:59:14 20° N 01:01:46 10° NE visible
24 May -1.5 02:33:41 10° NW 02:36:27 25° NNE 02:37:41 20° NE visible
24 May -1.1 04:09:58 10° WNW 04:10:10 11° WNW 04:10:10 11° WNW visible
24 May -3.7 22:26:40 10° WSW 22:29:55 80° NNW 22:33:12 10° ENE visible
25 May -1.3 00:04:04 10° WNW 00:06:47 23° NNW 00:09:31 10° NE visible
25 May -1.2 01:41:27 10° NW 01:44:02 21° N 01:46:00 13° NE visible
25 May -1.3 03:17:48 10° NW 03:18:35 16° NW 03:18:35 16° NW visible
25 May -1.7 23:11:27 10° W 23:14:22 29° NNW 23:17:19 10° NE visible
26 May -1.1 00:49:04 10° NW 00:51:34 20° N 00:54:03 10° NE visible
26 May -1.7 02:25:37 10° NW 02:27:35 27° NNW 02:27:35 27° NNW visible
26 May -1.1 23:56:34 10° NW 23:59:05 20° N 00:01:36 10° NE visible
27 May -1.8 01:33:27 10° NW 01:36:18 27° NNE 01:36:46 26° NNE visible
27 May -1.3 23:03:57 10° WNW 23:06:35 22° N 23:09:15 10° NE visible
28 May -1.4 00:41:12 10° NW 00:43:51 22° N 00:46:02 12° ENE visible
28 May -1.4 02:17:30 10° NW 02:18:39 20° NW 02:18:39 20° NW visible
28 May -1.2 23:48:49 10° NW 23:51:21 20° N 23:53:52 10° NE visible
29 May -2.4 01:25:18 10° NW 01:27:58 38° N 01:27:58 38° N visible
29 May -1.2 22:56:20 10° NW 22:58:49 20° N 23:01:19 10° NE visible
